Regional Weather Roundup
Issued by NWS

Home | Current Version | Previous Version | Graphics & Text | Print | Product List | Glossary On
Versions: 1 2 3 4 5 6 7 8 9 10 11 12 13 14 15 16 17 18 19 20 21 22 23 24 25 26 27 28 29 30 31 32 33 34 35 36 37 38 39 40 41 42 43 44 45 46 47 48 49 50
000
ASUS43 KIND 070709
RWRIN

WEATHER ROUNDUP FOR INDIANA
NATIONAL WEATHER SERVICE INDIANAPOLIS IN
300 AM EDT THU MAY 07 2015

NOTE: "FAIR" INDICATES FEW OR NO CLOUDS BELOW 12,000 FEET WITH NO
SIGNIFICANT WEATHER AND/OR OBSTRUCTIONS TO VISIBILITY.

* - STATION DOES NOT REPORT WEATHER SUCH AS PRECIPITATION OR FOG.

+ - STATION NOT QUALITY CONTROLLED BY THE NATIONAL WEATHER SERVICE.
    USE DATA WITH CAUTION...ESPECIALLY DEWPOINT AND RELATIVE
    HUMIDITY OBSERVATIONS.

INZ001>003-010>013-019-020-070800-
NORTHWEST INDIANA

CITY           SKY/WX    TMP DP  RH WIND       PRES   REMARKS
GARY /AIRPORT/ CLEAR     53  49  86 CALM      30.08S
KNOX *+        CLEAR     64  50  59 SE9       30.09S
LA PORTE +     CLEAR     62  62 100 E5        30.11S FOG
MICHIGAN CITY+ CLEAR     64  55  72 SE5       30.09F
MONTICELLO +   PTCLDY    65  55  70 E3        30.09S
VALPARAISO     CLEAR     62  57  83 E5        30.09F

$$

LMZ046-743>745-070800-
SOUTHERN LAKE MICHIGAN

STATION/POSITION TIME  TEMP    WIND        PRES    WAVE
                       AIR SEA DIR/SP/G            HT
                 (UTC) (F)     (DEG/KT/KT) (MB)    (FT)
BURNS HARBOR     0700   70     140/ 10/ 16 1019.0S
MICHIGAN CITY    0700   69     120/ 10/ 14   N/A
5NW MICH CITY    0700   62 53  160/ 10/ 10   N/A     1

$$

INZ004-005-014>016-021>024-070800-
NORTH CENTRAL INDIANA

CITY           SKY/WX    TMP DP  RH WIND       PRES   REMARKS
GOSHEN         CLEAR     61  58  90 E5        30.12F FOG
LOGANSPORT +   CLEAR     61  55  82 E7        30.11S
PERU/GRISSOM   CLEAR     62  58  86 E3        30.10S
ROCHESTER +    CLEAR     66  63  88 SE6       30.11S
SOUTH BEND     CLEAR     64  60  87 SE8       30.12S FOG
WARSAW +       CLEAR     61  59  94 CALM      30.12F

$$

INZ006>009-017-018-025>027-070800-
NORTHEAST INDIANA

CITY           SKY/WX    TMP DP  RH WIND       PRES   REMARKS
ANGOLA *+      CLEAR     59  55  88 SE8       30.15S
AUBURN +       CLEAR     55  54  94 E5        30.15F FOG
FORT WAYNE     CLEAR     59  56  89 E7        30.14F
HUNTINGTON +   CLEAR     60  58  93 E3        30.12F

$$

INZ028-029-035-036-043>045-051>053-070800-
WEST CENTRAL INDIANA

CITY           SKY/WX    TMP DP  RH WIND       PRES   REMARKS
CRAWFORDSVL +  CLEAR     59  49  68 CALM      30.09F
GREENCASTLE +  CLEAR     61  50  67 CALM      30.10S
LAFAYETTE      CLEAR     61  54  77 NE3       30.08S
TERRE HAUTE    CLEAR     60  56  86 CALM      30.08S

$$

INZ030>032-037>040-046>048-054>057-064-065-070800-
CENTRAL INDIANA

CITY           SKY/WX    TMP DP  RH WIND       PRES   REMARKS
CP ATTERBURY + CLEAR     55  54  94 CALM      30.11R
FISHERS *+     CLEAR     63  55  77 CALM      30.10F
FRANKFORT +    CLEAR     61  54  77 E3        30.12S
GREENWOOD *+   CLEAR     64  52  63 CALM      30.10F
INDIANAPOLIS   CLEAR     67  52  58 E3        30.08F
-EAGLE CREEK   CLEAR     61  55  81 CALM      30.09F
KOKOMO *+      CLEAR     63  57  82 SE7       30.10F
MARION +       CLEAR     64  56  75 E5        30.12S
MT COMFORT *+  CLEAR     66  43  42 SE5       30.11S
SHELBYVILLE    CLEAR     63  53  70 E6        30.10F
ZIONSVILLE +   CLEAR     62  55  76 CALM      30.11S

$$

INZ033-034-041-042-049-050-058-059-070800-
EAST CENTRAL INDIANA

CITY           SKY/WX    TMP DP  RH WIND       PRES   REMARKS
MUNCIE         CLEAR     65  57  75 SE6       30.11F

$$

INZ060-061-067>069-081>083-085>088-070800-
SOUTHWEST INDIANA

CITY           SKY/WX    TMP DP  RH WIND       PRES   REMARKS
EVANSVILLE     CLEAR     64  58  80 CALM      30.08S
HUNTINGBURG *+ CLEAR     64  55  72 CALM      30.08F
WASHINGTON +   CLEAR     62  52  71 CALM      30.07S

$$

INZ062-063-066-070>080-084-089>092-070800-
SOUTH CENTRAL AND SOUTHEAST INDIANA

CITY           SKY/WX    TMP DP  RH WIND       PRES   REMARKS
BLOOMINGTON    CLEAR     58  54  86 CALM      30.09S
MADISON *+     CLEAR     61  55  82 CALM      30.11F
NORTH VERNON + CLEAR     59  59 100 E3        30.10F
SEYMOUR +      CLEAR     59  55  88 CALM      30.09F

$$




USA.gov is the U.S. government's official web portal to all federal, state and local government web resources and services.